TimeAKST,TemperatureF,Dew PointF,Humidity,Sea Level PressureIn,VisibilityMPH,Wind Direction,Wind SpeedMPH,Gust SpeedMPH,PrecipitationIn,Events,Conditions,WindDirDegrees,DateUTC
12:22 AM,44.6,42.8,93,29.79,1.5,SE,23.0,32.2,N/A,,Overcast,140,2012-11-08 09:22:00
12:31 AM,44.6,42.8,93,29.79,2.5,SE,21.9,29.9,N/A,,Overcast,140,2012-11-08 09:31:00
12:53 AM,44.1,43.0,96,29.80,2.5,SE,23.0,-,N/A,,Overcast,140,2012-11-08 09:53:00
1:00 AM,44.6,42.8,93,29.79,3.0,SE,23.0,29.9,N/A,,Overcast,140,2012-11-08 10:00:00
1:20 AM,44.6,42.8,93,29.79,2.5,SE,23.0,-,N/A,,Overcast,140,2012-11-08 10:20:00
1:28 AM,44.6,42.8,93,29.79,3.0,SE,19.6,29.9,N/A,,Overcast,140,2012-11-08 10:28:00
1:44 AM,42.8,42.8,100,29.79,2.0,SSE,19.6,-,N/A,,Overcast,150,2012-11-08 10:44:00
1:53 AM,43.0,43.0,100,29.79,1.2,SSE,17.3,-,N/A,,Overcast,150,2012-11-08 10:53:00
2:16 AM,42.8,42.8,100,29.77,0.8,SE,18.4,24.2,N/A,,Mist,140,2012-11-08 11:16:00
2:36 AM,42.8,42.8,100,29.78,1.0,SE,20.7,-,N/A,,Mist,140,2012-11-08 11:36:00
3:16 AM,44.6,42.8,93,29.77,3.0,SE,20.7,27.6,N/A,,Overcast,140,2012-11-08 12:16:00
3:53 AM,44.1,43.0,96,29.78,3.0,SSE,24.2,34.5,N/A,,Overcast,150,2012-11-08 12:53:00
4:01 AM,42.8,42.8,100,29.78,2.0,SSE,23.0,32.2,0.00,Rain,Light Rain,150,2012-11-08 13:01:00
4:14 AM,42.8,42.8,100,29.78,4.0,SSE,25.3,31.1,0.00,Rain,Light Rain,150,2012-11-08 13:14:00
4:23 AM,42.8,42.8,100,29.77,1.8,SE,21.9,29.9,0.00,Rain,Light Rain,140,2012-11-08 13:23:00
4:53 AM,43.0,43.0,100,29.77,2.5,SSE,23.0,29.9,0.00,,Overcast,150,2012-11-08 13:53:00
5:19 AM,42.8,42.8,100,29.75,3.0,SE,20.7,27.6,N/A,,Overcast,140,2012-11-08 14:19:00
5:53 AM,43.0,43.0,100,29.75,6.0,SE,24.2,33.4,N/A,,Overcast,140,2012-11-08 14:53:00
6:53 AM,44.1,43.0,96,29.74,7.0,SSE,28.8,35.7,N/A,,Overcast,150,2012-11-08 15:53:00
7:07 AM,44.6,42.8,93,29.73,10.0,SSE,29.9,40.3,N/A,,Overcast,160,2012-11-08 16:07:00
7:53 AM,44.1,43.0,96,29.73,10.0,South,23.0,33.4,N/A,,Overcast,170,2012-11-08 16:53:00
8:53 AM,44.1,43.0,96,29.73,10.0,South,20.7,-,N/A,,Overcast,170,2012-11-08 17:53:00
9:16 AM,44.6,44.6,100,29.73,10.0,South,17.3,-,N/A,,Overcast,170,2012-11-08 18:16:00
9:53 AM,44.1,43.0,96,29.72,10.0,South,19.6,-,0.00,,Overcast,170,2012-11-08 18:53:00
10:53 AM,45.0,43.0,93,29.69,10.0,SSE,21.9,26.5,0.00,,Overcast,160,2012-11-08 19:53:00
11:28 AM,44.6,42.8,93,29.68,10.0,SSE,19.6,27.6,0.00,Rain,Light Rain,160,2012-11-08 20:28:00
11:53 AM,45.0,43.0,93,29.68,10.0,SE,24.2,34.5,0.00,Rain,Light Rain,130,2012-11-08 20:53:00
12:43 PM,46.4,44.6,93,29.64,9.0,SSE,26.5,35.7,0.02,Rain,Light Rain,150,2012-11-08 21:43:00
12:53 PM,46.0,44.1,93,29.62,9.0,SSE,32.2,40.3,0.02,Rain,Light Rain,150,2012-11-08 21:53:00
1:01 PM,46.4,44.6,93,29.61,9.0,SSE,31.1,40.3,0.01,,Overcast,150,2012-11-08 22:01:00
1:53 PM,46.0,44.1,93,29.57,7.0,SE,26.5,34.5,0.06,Rain,Light Rain,140,2012-11-08 22:53:00
2:53 PM,46.0,44.1,93,29.54,5.0,SE,31.1,35.7,0.09,Rain,Light Rain,140,2012-11-08 23:53:00
3:23 PM,46.4,44.6,93,29.52,3.0,SE,27.6,-,0.04,Rain,Rain,140,2012-11-09 00:23:00
3:53 PM,46.0,45.0,96,29.50,4.0,SE,20.7,31.1,0.06,Rain,Rain,140,2012-11-09 00:53:00
4:11 PM,46.4,44.6,93,29.49,4.0,SE,25.3,-,0.03,Rain,Rain,140,2012-11-09 01:11:00
4:25 PM,46.4,44.6,93,29.49,3.0,SE,20.7,-,0.06,Rain,Rain,140,2012-11-09 01:25:00
4:41 PM,46.4,44.6,93,29.47,4.0,SE,23.0,-,0.09,Rain,Light Rain,140,2012-11-09 01:41:00
4:49 PM,46.4,44.6,93,29.47,3.0,SE,24.2,29.9,0.11,Rain,Rain,140,2012-11-09 01:49:00
4:53 PM,46.0,45.0,96,29.47,3.0,SE,23.0,-,0.12,Rain,Rain,140,2012-11-09 01:53:00
5:05 PM,46.4,44.6,93,29.46,2.5,SE,18.4,28.8,0.04,Rain,Rain,140,2012-11-09 02:05:00
5:24 PM,46.4,44.6,93,29.45,2.5,SSE,21.9,-,0.08,Rain,Rain,150,2012-11-09 02:24:00
5:53 PM,46.0,45.0,96,29.43,3.0,SE,18.4,-,0.16,Rain,Rain,140,2012-11-09 02:53:00
6:03 PM,46.4,44.6,93,29.42,3.0,SE,20.7,-,0.03,Rain,Light Rain,140,2012-11-09 03:03:00
6:23 PM,46.4,44.6,93,29.40,2.5,SE,21.9,-,0.05,,Overcast,140,2012-11-09 03:23:00
6:31 PM,46.4,44.6,93,29.39,2.5,SE,18.4,-,0.06,,Overcast,140,2012-11-09 03:31:00
6:43 PM,46.4,44.6,93,29.38,3.0,SE,16.1,-,0.08,Rain,Light Rain,140,2012-11-09 03:43:00
6:53 PM,46.0,45.0,96,29.38,3.0,SE,15.0,-,0.09,Rain,Light Rain,140,2012-11-09 03:53:00
7:03 PM,46.4,44.6,93,29.37,2.5,SE,13.8,-,0.03,Rain,Light Rain,140,2012-11-09 04:03:00
7:33 PM,46.4,44.6,93,29.34,1.8,SE,9.2,-,0.13,Rain,Rain,130,2012-11-09 04:33:00
7:40 PM,46.4,46.4,100,29.34,2.0,SE,15.0,-,0.15,Rain,Rain,130,2012-11-09 04:40:00
7:53 PM,46.0,46.0,100,29.32,3.0,SE,16.1,21.9,0.18,Rain,Rain,140,2012-11-09 04:53:00
8:05 PM,46.4,46.4,100,29.31,5.0,SE,16.1,-,0.05,Rain,Rain,130,2012-11-09 05:05:00
8:24 PM,46.4,44.6,93,29.28,5.0,SE,23.0,31.1,0.09,Rain,Rain,130,2012-11-09 05:24:00
8:53 PM,46.9,45.0,93,29.24,5.0,SE,29.9,36.8,0.15,Rain,Rain,130,2012-11-09 05:53:00
9:01 PM,46.4,44.6,93,29.24,6.0,SE,24.2,38.0,0.01,Rain,Light Rain,130,2012-11-09 06:01:00
9:09 PM,46.4,44.6,93,29.23,8.0,SE,25.3,33.4,0.01,Rain,Rain,130,2012-11-09 06:09:00
9:42 PM,46.4,44.6,93,29.22,5.0,SE,29.9,39.1,0.09,Rain,Light Rain,130,2012-11-09 06:42:00
9:50 PM,46.4,46.4,100,29.21,2.5,SE,31.1,39.1,0.09,,Overcast,140,2012-11-09 06:50:00
9:53 PM,46.9,46.0,97,29.21,2.0,SE,32.2,39.1,0.09,,Overcast,130,2012-11-09 06:53:00
10:03 PM,46.4,44.6,93,29.20,2.5,SE,27.6,41.4,0.02,,Overcast,130,2012-11-09 07:03:00
10:49 PM,46.4,46.4,100,29.18,3.0,SE,27.6,35.7,0.10,Rain,Rain,140,2012-11-09 07:49:00
10:53 PM,46.9,46.0,97,29.19,4.0,SE,27.6,38.0,0.11,Rain,Rain,140,2012-11-09 07:53:00
11:05 PM,46.4,44.6,93,29.16,6.0,SE,29.9,39.1,0.03,Rain,Light Rain,140,2012-11-09 08:05:00
11:16 PM,46.4,44.6,93,29.16,6.0,SE,27.6,42.6,0.03,,Overcast,130,2012-11-09 08:16:00
11:53 PM,46.0,45.0,96,29.17,5.0,SE,24.2,34.5,0.03,Rain,Light Rain,130,2012-11-09 08:53:00